Flag for Germany Weather past 2 weeks in Wismar, Mecklenburg-Western Pomerania, Germany

Now
38 °F

Passing clouds.


Feels Like: 34 °F
Forecast: 33 / 44 °F
Wind: 5 mph from Southeast

Location: Schwerin

Current Time: Feb 27, 2015 at 2:12:24 AM

Latest Report: Feb 27, 2015 at 1:00 AM


Visibility: 14 mi

Pressure: 29.89 "Hg

Humidity: 63%

Dew point: 26 °F

Location of WismarLocation

Historic Weather in Wismar — Graph

°F

Wismar temperature yesterday

Maximum temperature yesterday: 49 °F (at 3:00 PM)
Minimum temperature yesterday: 35 °F (at 9:00 AM)
Average temperature yesterday: 42 °F

Past Weeks' High & Low Weather Summary

 TemperatureHumidityPressure
High49 °F (Feb 26, 3:00 PM)100% (Feb 14, 12:00 AM)30.69 "Hg (Feb 14, 12:00 AM)
Low27 °F (Feb 17, 8:00 AM)45% (Feb 26, 5:00 PM)29.23 "Hg (Feb 21, 1:00 PM)
Average36 °F85%29.99 "Hg
* Reported Feb 12 1:00 AM — Feb 27 1:00 AM, Wismar, Weather by CustomWeather, © 2015

Note: Actual official high and low records may vary slightly from our data, if they occured in-between our weather recording intervals... More about our weather records

Advertising

Wismar weather history for previous 24 hours

 ConditionsComfort  
Time TempWeatherWind HumidityBarometerVisibility
1:00 AM
Fri, Feb 27
38 °FPassing clouds.5 mph63%29.89 "Hg14 mi
12:00 AM39 °FPassing clouds.3 mph61%29.91 "Hg14 mi
11:00 PM
Thu, Feb 26
39 °FClear.3 mph61%29.93 "Hg13 mi
9:00 PM40 °FPassing clouds.5 mph61%29.96 "Hg15 mi
8:00 PM42 °FPassing clouds.3 mph58%29.98 "Hg17 mi
7:00 PM43 °FPassing clouds.3 mph56%29.99 "Hg16 mi
6:00 PM45 °FPassing clouds.3 mph54%30.00 "Hg18 mi
5:00 PM47 °FPassing clouds.3 mph45%30.01 "Hg19 mi
3:00 PM49 °FPartly sunny.5 mph51%30.04 "Hg15 mi
2:00 PM47 °FScattered clouds.5 mph58%30.07 "Hg13 mi
1:00 PM46 °FScattered clouds.5 mph61%30.10 "Hg13 mi
12:00 PM43 °FSunny.5 mph64%30.13 "Hg8 mi
11:00 AM41 °FPassing clouds.3 mph67%30.14 "Hg12 mi
10:00 AM39 °FSunny.2 mph71%30.15 "Hg11 mi
9:00 AM35 °FOvercast.2 mph79%30.16 "Hg10 mi
2:00 AM37 °FPassing clouds.2 mph73%30.15 "Hg15 mi
Weather by CustomWeather, © 2015

See weather overviewHow to use our weather pages